Hourly Data Report for August 23, 2020

OTTAWA INTL A
ONTARIO
Current Station Operator: NAVCAN

45°19'00.000" N
75°40'00.000" W
114.90 m
6106001
71628
YOW

Download Data

Hourly Data (August 2020)
Hourly Data Report for August 23, 2020
TIME
LST
Temp Definition
°C
Dew Point Definition
°C
Rel Hum Definition
%
Precip. Amount Definition
mm

Wind Dir Definition
10's deg

Wind Spd Definition
km/h
Visibility Definition
km
Stn Press Definition
kPa
Hmdx Definition


Wind Chill Definition


Weather Definition


00:00 18.9 17.2 90   36 1 24.1 100.08     LegendNANA
01:00 19.9 18.0 89   36 3 24.1 100.07     Rain
02:00 19.5 18.1 91   20 5 24.1 100.07     LegendNANA
03:00 19.8 18.8 94   20 9 16.1 100.10     Rain Showers
04:00 19.9 19.4 97   22 6 16.1 100.10     Rain Showers
05:00 19.7 19.3 98   20 9 8.1 100.14     Fog
06:00 19.3 18.9 97   22 8 9.7 100.19     Fog
07:00 19.7 19.1 97   25 6 16.1 100.22     Clear
08:00 21.7 20.3 91   24 6 24.1 100.22 30   LegendNANA
09:00 23.3 19.6 79   31 5 24.1 100.24 31   LegendNANA
10:00 24.2 20.0 77   20 4 24.1 100.26 32   Mostly Cloudy
11:00 25.9 19.5 67   25 9 24.1 100.26 33   LegendNANA
12:00 27.3 20.1 64   27 9 24.1 100.21 35   LegendNANA
13:00 26.9 20.2 66   30 8 24.1 100.20 35   Mostly Cloudy
14:00 27.6 20.1 63   16 3 24.1 100.14 35   LegendNANA
15:00 28.0 18.9 57   18 4 24.1 100.11 35   LegendNANA
16:00 27.6 19.1 59   32 3 24.1 100.10 34   Mostly Cloudy
17:00 27.6 18.1 56   35 15 24.1 100.10 34   LegendNANA
18:00 24.2 19.2 73   1 15 24.1 100.10 31   LegendNANA
19:00 22.5 18.5 78   6 11 24.1 100.15 29   Mostly Cloudy
20:00 20.2 17.1 82   32 34 9.7 100.33 26   Thunderstorms,Rain Showers, Fog
21:00 18.7 17.6 93   13 5 24.1 100.25     Thunderstorms
22:00 18.5 17.6 94   18 13 24.1 100.21     Cloudy
23:00 18.2 17.4 95   10 5 24.1 100.17     LegendNANA

Notes on Data Quality.

Legend

  • E = Estimated
  • M = Missing
  • NA = Not Available*
  • [empty] = Indicates an unobserved value
Date modified: